EST,Max TemperatureF,Mean TemperatureF,Min TemperatureF,Max Dew PointF,MeanDew PointF,Min DewpointF,Max Humidity, Mean Humidity, Min Humidity, Max Sea Level PressureIn, Mean Sea Level PressureIn, Min Sea Level PressureIn, Max VisibilityMiles, Mean VisibilityMiles, Min VisibilityMiles, Max Wind SpeedMPH, Mean Wind SpeedMPH, Max Gust SpeedMPH,PrecipitationIn, CloudCover, Events, WindDirDegrees
2013-12-1,48,42,35,46,39,28,100,85,54,30.45,30.18,29.97,10,9,0,16,10,22,0.00,7,Fog,143
2013-12-2,46,42,37,45,38,36,100,94,85,29.99,29.95,29.90,10,6,0,9,4,,0.00,8,Fog,349
2013-12-3,44,38,32,39,35,30,100,89,71,29.94,29.88,29.82,10,9,4,18,7,20,0.00,5,,347
2013-12-4,44,35,26,32,28,25,100,80,49,30.21,30.10,29.94,10,9,2,12,4,,0.00,1,,301
2013-12-5,55,40,28,55,43,27,100,92,81,30.22,30.12,29.97,10,6,0,16,6,23,0.00,8,Fog,146
2013-12-6,57,47,37,57,49,36,100,96,81,30.12,29.98,29.90,10,4,0,21,12,30,0.12,8,Fog-Rain,305
2013-12-7,41,34,28,37,29,18,100,79,36,30.44,30.23,30.04,10,8,2,17,8,18,0.12,5,Rain,334
2013-12-8,35,29,23,23,18,14,80,61,41,30.59,30.52,30.45,10,10,10,13,5,,0.02,3,,348
2013-12-9,50,41,32,49,37,21,100,94,64,30.47,30.10,29.87,10,4,0,23,10,33,0.04,8,Fog-Rain-Snow,78
2013-12-10,40,33,24,34,30,19,100,93,64,30.02,29.90,29.80,10,6,0,17,6,24,0.12,5,Snow,297
2013-12-11,34,28,23,23,19,16,86,67,38,30.26,30.17,30.03,10,10,10,20,13,25,0.00,3,,277
2013-12-12,29,22,14,18,8,0,80,55,22,30.26,30.20,30.11,10,10,10,18,10,25,0.00,0,,312
2013-12-13,31,25,19,16,11,7,74,57,31,30.35,30.12,30.02,10,10,10,24,13,29,0.00,3,,289
2013-12-14,33,24,15,30,16,5,93,76,39,30.57,30.43,30.12,10,6,1,21,9,26,0.28,7,Snow,33
2013-12-15,50,38,26,50,33,19,100,91,49,30.09,29.60,29.33,10,6,0,29,17,44,0.28,6,Fog-Rain-Snow,270
2013-12-16,35,25,15,23,12,3,93,55,23,30.22,29.98,29.78,10,10,10,20,10,30,0.00,2,,297
2013-12-17,42,26,10,38,18,5,100,77,37,30.26,30.10,29.86,10,8,0,20,6,22,0.03,5,Rain-Snow,30
2013-12-18,38,30,21,35,23,18,100,76,41,30.11,29.92,29.75,10,9,3,23,11,24,0.00,3,,311
2013-12-19,46,36,26,36,28,21,81,70,51,30.14,30.08,29.98,10,10,10,25,12,33,0.00,4,,248
2013-12-20,53,40,28,46,37,27,100,82,58,30.15,30.06,29.98,10,10,5,25,7,34,0.00,3,,217
2013-12-21,57,52,48,54,49,46,95,85,72,30.05,29.98,29.93,10,10,4,25,17,37,0.01,3,,234
2013-12-22,60,51,42,57,52,41,100,95,77,30.03,29.93,29.86,10,5,0,31,18,41,0.00,8,Fog-Rain,241
2013-12-23,51,43,35,50,41,36,100,96,87,30.07,30.01,29.94,10,5,0,14,5,20,0.24,8,Fog-Rain,21
2013-12-24,39,34,26,39,26,16,100,76,52,30.19,30.09,30.00,10,10,3,23,9,24,0.24,6,Rain-Snow,342
2013-12-25,28,22,17,19,9,1,74,59,39,30.55,30.43,30.19,10,10,9,21,9,24,0.00,4,,332
2013-12-26,42,30,17,37,27,9,100,84,51,30.50,30.27,30.06,10,9,2,17,7,23,0.12,6,Rain,129
2013-12-27,36,30,23,23,20,18,86,69,41,30.29,30.25,30.21,10,10,10,16,8,22,0.00,2,,280
2013-12-28,46,36,26,39,30,21,93,76,55,30.25,30.13,30.03,10,10,7,28,10,36,0.00,1,,238
2013-12-29,55,45,35,55,40,32,100,90,71,30.06,29.81,29.30,10,6,1,33,10,46,0.20,5,Rain,225
2013-12-30,44,34,23,39,27,14,100,74,35,30.13,29.88,29.48,10,10,7,20,10,26,0.00,5,Rain,296
2013-12-31,29,23,17,21,10,1,78,58,40,30.18,30.11,30.04,10,10,9,16,8,24,0.00,4,Snow,305